Year,Month,Day,Hour,Minute,Value (Times are PST for temperature in C)
2019,10,03,00,00,9.70
2019,10,03,00,01,9.70
2019,10,03,00,02,9.70
2019,10,03,00,03,9.70
2019,10,03,00,04,9.70
2019,10,03,00,05,9.70
2019,10,03,00,06,9.70
2019,10,03,00,07,9.60
2019,10,03,00,08,9.60
2019,10,03,00,09,9.60
2019,10,03,00,10,9.60
2019,10,03,00,11,9.60
2019,10,03,00,12,9.60
2019,10,03,00,13,9.60
2019,10,03,00,14,9.60
2019,10,03,00,15,9.60
2019,10,03,00,16,9.60
2019,10,03,00,17,9.60
2019,10,03,00,18,9.60
2019,10,03,00,19,9.60
2019,10,03,00,20,9.60
2019,10,03,00,21,9.60
2019,10,03,00,22,9.60
2019,10,03,00,23,9.60
2019,10,03,00,24,9.60
2019,10,03,00,25,9.60
2019,10,03,00,26,9.60
2019,10,03,00,27,9.60
2019,10,03,00,28,9.50
2019,10,03,00,29,9.60
2019,10,03,00,30,9.60
2019,10,03,00,31,9.60
2019,10,03,00,32,9.60
2019,10,03,00,33,9.60
2019,10,03,00,34,9.60
2019,10,03,00,35,9.50
2019,10,03,00,36,9.50
2019,10,03,00,37,9.50
2019,10,03,00,38,9.50
2019,10,03,00,39,9.50
2019,10,03,00,40,9.50
2019,10,03,00,41,9.50
2019,10,03,00,42,9.50
2019,10,03,00,43,9.50
2019,10,03,00,44,9.50
2019,10,03,00,45,9.50
2019,10,03,00,46,9.50
2019,10,03,00,47,9.50
2019,10,03,00,48,9.50
2019,10,03,00,49,9.50
2019,10,03,00,50,9.50
2019,10,03,00,51,9.50
2019,10,03,00,52,9.50
2019,10,03,00,53,9.50
2019,10,03,00,54,9.50
2019,10,03,00,55,9.50
2019,10,03,00,56,9.40
2019,10,03,00,57,9.40
2019,10,03,00,58,9.40
2019,10,03,00,59,9.40
2019,10,03,01,00,9.40
2019,10,03,01,01,9.40
2019,10,03,01,02,9.40
2019,10,03,01,03,9.30
2019,10,03,01,04,9.30
2019,10,03,01,05,9.30
2019,10,03,01,06,9.30
2019,10,03,01,07,9.30
2019,10,03,01,08,9.30
2019,10,03,01,09,9.30
2019,10,03,01,10,9.30
2019,10,03,01,11,9.30
2019,10,03,01,12,9.30
2019,10,03,01,13,9.30
2019,10,03,01,14,9.30
2019,10,03,01,15,9.30
2019,10,03,01,16,9.30
2019,10,03,01,17,9.30
2019,10,03,01,18,9.20
2019,10,03,01,19,9.20
2019,10,03,01,20,9.30
2019,10,03,01,21,9.30
2019,10,03,01,22,9.30
2019,10,03,01,23,9.30
2019,10,03,01,24,9.20
2019,10,03,01,25,9.20
2019,10,03,01,26,9.20
2019,10,03,01,27,9.20
2019,10,03,01,28,9.20
2019,10,03,01,29,9.20
2019,10,03,01,30,9.20
2019,10,03,01,31,9.20
2019,10,03,01,32,9.20
2019,10,03,01,33,9.20
2019,10,03,01,34,9.20
2019,10,03,01,35,9.20
2019,10,03,01,36,9.20
2019,10,03,01,37,9.20
2019,10,03,01,38,9.20
2019,10,03,01,39,9.20
2019,10,03,01,40,9.20
2019,10,03,01,41,9.20
2019,10,03,01,42,9.20
2019,10,03,01,43,9.20
2019,10,03,01,44,9.20
2019,10,03,01,45,9.20
2019,10,03,01,46,9.20
2019,10,03,01,47,9.20
2019,10,03,01,48,9.20
2019,10,03,01,49,9.20
2019,10,03,01,50,9.20
2019,10,03,01,51,9.20
2019,10,03,01,52,9.20
2019,10,03,01,53,9.20
2019,10,03,01,54,9.20
2019,10,03,01,55,9.20
2019,10,03,01,56,9.20
2019,10,03,01,57,9.20
2019,10,03,01,58,9.20
2019,10,03,01,59,9.20
2019,10,03,02,00,9.20
2019,10,03,02,01,9.20
2019,10,03,02,02,9.20
2019,10,03,02,03,9.20
2019,10,03,02,04,9.20
2019,10,03,02,05,9.20
2019,10,03,02,06,9.20
2019,10,03,02,07,9.20
2019,10,03,02,08,9.20
2019,10,03,02,09,9.20
2019,10,03,02,10,9.20
2019,10,03,02,11,9.20
2019,10,03,02,12,9.20
2019,10,03,02,13,9.20
2019,10,03,02,14,9.20
2019,10,03,02,15,9.20
2019,10,03,02,16,9.20
2019,10,03,02,17,9.20
2019,10,03,02,18,9.20
2019,10,03,02,19,9.20
2019,10,03,02,20,9.20
2019,10,03,02,21,9.20
2019,10,03,02,22,9.20
2019,10,03,02,23,9.20
2019,10,03,02,24,9.20
2019,10,03,02,25,9.20
2019,10,03,02,26,9.20
2019,10,03,02,27,9.20
2019,10,03,02,28,9.20
2019,10,03,02,29,9.20
2019,10,03,02,30,9.20
2019,10,03,02,31,9.20
2019,10,03,02,32,9.20
2019,10,03,02,33,9.20
2019,10,03,02,34,9.20
2019,10,03,02,35,9.20
2019,10,03,02,36,9.20
2019,10,03,02,37,9.30
2019,10,03,02,38,9.30
2019,10,03,02,39,9.30
2019,10,03,02,40,9.30
2019,10,03,02,41,9.30
2019,10,03,02,42,9.30
2019,10,03,02,43,9.30
2019,10,03,02,44,9.30
2019,10,03,02,45,9.30
2019,10,03,02,46,9.40
2019,10,03,02,47,9.40
2019,10,03,02,48,9.40
2019,10,03,02,49,9.50
2019,10,03,02,50,9.50
2019,10,03,02,51,9.50
2019,10,03,02,52,9.50
2019,10,03,02,53,9.60
2019,10,03,02,54,9.60
2019,10,03,02,55,9.60
2019,10,03,02,56,9.60
2019,10,03,02,57,9.60
2019,10,03,02,58,9.70
2019,10,03,02,59,9.70
2019,10,03,03,00,9.70
2019,10,03,03,01,9.70
2019,10,03,03,02,9.70
2019,10,03,03,03,9.70
2019,10,03,03,04,9.80
2019,10,03,03,05,9.80
2019,10,03,03,06,9.80
2019,10,03,03,07,9.80
2019,10,03,03,08,9.90
2019,10,03,03,09,9.90
2019,10,03,03,10,9.90
2019,10,03,03,11,9.90
2019,10,03,03,12,9.90
2019,10,03,03,13,9.90
2019,10,03,03,14,9.90
2019,10,03,03,15,10.00
2019,10,03,03,16,10.00
2019,10,03,03,17,10.00
2019,10,03,03,18,10.00
2019,10,03,03,19,10.00
2019,10,03,03,20,10.00
2019,10,03,03,21,10.10
2019,10,03,03,22,10.10
2019,10,03,03,23,10.10
2019,10,03,03,24,10.10
2019,10,03,03,25,10.20
2019,10,03,03,26,10.20
2019,10,03,03,27,10.20
2019,10,03,03,28,10.20
2019,10,03,03,29,10.20
2019,10,03,03,30,10.20
2019,10,03,03,31,10.20
2019,10,03,03,32,10.20
2019,10,03,03,33,10.20
2019,10,03,03,34,10.20
2019,10,03,03,35,10.30
2019,10,03,03,36,10.20
2019,10,03,03,37,10.30
2019,10,03,03,38,10.30
2019,10,03,03,39,10.30
2019,10,03,03,40,10.30
2019,10,03,03,41,10.30
2019,10,03,03,42,10.30
2019,10,03,03,43,10.30
2019,10,03,03,44,10.30
2019,10,03,03,45,10.30
2019,10,03,03,46,10.40
2019,10,03,03,47,10.40
2019,10,03,03,48,10.40
2019,10,03,03,49,10.40
2019,10,03,03,50,10.40
2019,10,03,03,51,10.30
2019,10,03,03,52,10.30
2019,10,03,03,53,10.30
2019,10,03,03,54,10.30
2019,10,03,03,55,10.30
2019,10,03,03,56,10.30
2019,10,03,03,57,10.30
2019,10,03,03,58,10.30
2019,10,03,03,59,10.40
2019,10,03,04,00,10.40
2019,10,03,04,01,10.40
2019,10,03,04,02,10.40
2019,10,03,04,03,10.40
2019,10,03,04,04,10.40
2019,10,03,04,05,10.40
2019,10,03,04,06,10.40
2019,10,03,04,07,10.40
2019,10,03,04,08,10.40
2019,10,03,04,09,10.40
2019,10,03,04,10,10.50
2019,10,03,04,11,10.50
2019,10,03,04,12,10.50
2019,10,03,04,13,10.50
2019,10,03,04,14,10.50
2019,10,03,04,15,10.60
2019,10,03,04,16,10.60
2019,10,03,04,17,10.60
2019,10,03,04,18,10.70
2019,10,03,04,19,10.70
2019,10,03,04,20,10.70
2019,10,03,04,21,10.70
2019,10,03,04,22,10.70
2019,10,03,04,23,10.70
2019,10,03,04,24,10.70
2019,10,03,04,25,10.80
2019,10,03,04,26,10.70
2019,10,03,04,27,10.70
2019,10,03,04,28,10.70
2019,10,03,04,29,10.70
2019,10,03,04,30,10.70
2019,10,03,04,31,10.70
2019,10,03,04,32,10.70
2019,10,03,04,33,10.70
2019,10,03,04,34,10.70
2019,10,03,04,35,10.70
2019,10,03,04,36,10.70
2019,10,03,04,37,10.70
2019,10,03,04,38,10.70
2019,10,03,04,39,10.70
2019,10,03,04,40,10.70
2019,10,03,04,41,10.70
2019,10,03,04,42,10.70
2019,10,03,04,43,10.80
2019,10,03,04,44,10.70
2019,10,03,04,45,10.80
2019,10,03,04,46,10.80
2019,10,03,04,47,10.70
2019,10,03,04,48,10.70
2019,10,03,04,49,10.70
2019,10,03,04,50,10.70
2019,10,03,04,51,10.70
2019,10,03,04,52,10.70
2019,10,03,04,53,10.80
2019,10,03,04,54,10.80
2019,10,03,04,55,10.80
2019,10,03,04,56,10.80
2019,10,03,04,57,10.80
2019,10,03,04,58,10.90
2019,10,03,04,59,10.80
2019,10,03,05,00,10.80
2019,10,03,05,01,10.80
2019,10,03,05,02,10.80
2019,10,03,05,03,10.80
2019,10,03,05,04,10.80
2019,10,03,05,05,10.80
2019,10,03,05,06,10.80
2019,10,03,05,07,10.80
2019,10,03,05,08,10.80
2019,10,03,05,09,10.80
2019,10,03,05,10,10.80
2019,10,03,05,11,10.80
2019,10,03,05,12,10.80
2019,10,03,05,13,10.80
2019,10,03,05,14,10.80
2019,10,03,05,15,10.80
2019,10,03,05,16,10.80
2019,10,03,05,17,10.80
2019,10,03,05,18,10.80
2019,10,03,05,19,10.80
2019,10,03,05,20,10.90
2019,10,03,05,21,10.90
2019,10,03,05,22,10.90
2019,10,03,05,23,10.90
2019,10,03,05,24,10.90
2019,10,03,05,25,10.90
2019,10,03,05,26,10.90
2019,10,03,05,27,10.90
2019,10,03,05,28,10.90
2019,10,03,05,29,10.90
2019,10,03,05,30,10.90
2019,10,03,05,31,10.90
2019,10,03,05,32,10.80
2019,10,03,05,33,10.80
2019,10,03,05,34,10.80
2019,10,03,05,35,10.80
2019,10,03,05,36,10.80
2019,10,03,05,37,10.90
2019,10,03,05,38,10.90
2019,10,03,05,39,10.90
2019,10,03,05,40,10.90
2019,10,03,05,41,11.00
2019,10,03,05,42,11.00
2019,10,03,05,43,11.00
2019,10,03,05,44,11.00
2019,10,03,05,45,10.90
2019,10,03,05,46,10.90
2019,10,03,05,47,10.90
2019,10,03,05,48,10.90
2019,10,03,05,49,10.80
2019,10,03,05,50,10.80
2019,10,03,05,51,10.80
2019,10,03,05,52,10.80
2019,10,03,05,53,10.80
2019,10,03,05,54,10.80
2019,10,03,05,55,10.80
2019,10,03,05,56,10.80
2019,10,03,05,57,10.80
2019,10,03,05,58,10.80
2019,10,03,05,59,10.70
2019,10,03,06,00,10.70
2019,10,03,06,01,10.70
2019,10,03,06,02,10.70
2019,10,03,06,03,10.70
2019,10,03,06,04,10.70
2019,10,03,06,05,10.70
2019,10,03,06,06,10.70
2019,10,03,06,07,10.70
2019,10,03,06,08,10.70
2019,10,03,06,09,10.70
2019,10,03,06,10,10.70
2019,10,03,06,11,10.80
2019,10,03,06,12,10.80
2019,10,03,06,13,10.80
2019,10,03,06,14,10.80
2019,10,03,06,15,10.80
2019,10,03,06,16,10.80
2019,10,03,06,17,10.90
2019,10,03,06,18,10.90
2019,10,03,06,19,10.90
2019,10,03,06,20,11.00
2019,10,03,06,21,11.00
2019,10,03,06,22,11.00
2019,10,03,06,23,11.10
2019,10,03,06,24,11.10
2019,10,03,06,25,11.00
2019,10,03,06,26,11.00
2019,10,03,06,27,11.00
2019,10,03,06,28,11.00
2019,10,03,06,29,11.00
2019,10,03,06,30,10.90
2019,10,03,06,31,10.90
2019,10,03,06,32,10.90
2019,10,03,06,33,10.90
2019,10,03,06,34,10.90
2019,10,03,06,35,11.00
2019,10,03,06,36,10.90
2019,10,03,06,37,10.90
2019,10,03,06,38,11.00
2019,10,03,06,39,11.00
2019,10,03,06,40,11.00
2019,10,03,06,41,11.00
2019,10,03,06,42,11.00
2019,10,03,06,43,11.00
2019,10,03,06,44,11.00
2019,10,03,06,45,11.00
2019,10,03,06,46,11.00
2019,10,03,06,47,11.00
2019,10,03,06,48,11.10
2019,10,03,06,49,11.10
2019,10,03,06,50,11.10
2019,10,03,06,51,11.10
2019,10,03,06,52,11.10
2019,10,03,06,53,11.10
2019,10,03,06,54,11.10
2019,10,03,06,55,11.10
2019,10,03,06,56,11.10
2019,10,03,06,57,11.10
2019,10,03,06,58,11.10
2019,10,03,06,59,11.10
2019,10,03,07,00,11.10
2019,10,03,07,01,11.10
2019,10,03,07,02,11.10
2019,10,03,07,03,11.10
2019,10,03,07,04,11.10
2019,10,03,07,05,11.10
2019,10,03,07,06,11.10
2019,10,03,07,07,11.10
2019,10,03,07,08,11.10
2019,10,03,07,09,11.10
2019,10,03,07,10,11.10
2019,10,03,07,11,11.00
2019,10,03,07,12,11.00
2019,10,03,07,13,11.00
2019,10,03,07,14,11.00
2019,10,03,07,15,11.00
2019,10,03,07,16,11.00
2019,10,03,07,17,11.00
2019,10,03,07,18,11.00
2019,10,03,07,19,11.00
2019,10,03,07,20,11.00
2019,10,03,07,21,11.00
2019,10,03,07,22,11.00
2019,10,03,07,23,11.00
2019,10,03,07,24,11.00
2019,10,03,07,25,11.00
2019,10,03,07,26,11.00
2019,10,03,07,27,11.00
2019,10,03,07,28,11.00
2019,10,03,07,29,11.00
2019,10,03,07,30,10.90
2019,10,03,07,31,10.90
2019,10,03,07,32,10.90
2019,10,03,07,33,10.90
2019,10,03,07,34,10.90
2019,10,03,07,35,10.90
2019,10,03,07,36,10.90
2019,10,03,07,37,10.90
2019,10,03,07,38,10.90
2019,10,03,07,39,10.90
2019,10,03,07,40,10.90
2019,10,03,07,41,10.90
2019,10,03,07,42,10.90
2019,10,03,07,43,10.90
2019,10,03,07,44,10.80
2019,10,03,07,45,10.80
2019,10,03,07,46,10.80
2019,10,03,07,47,10.80
2019,10,03,07,48,10.80
2019,10,03,07,49,10.80
2019,10,03,07,50,10.80
2019,10,03,07,51,10.80
2019,10,03,07,52,10.80
2019,10,03,07,53,10.80
2019,10,03,07,54,10.70
2019,10,03,07,55,10.70
2019,10,03,07,56,10.70
2019,10,03,07,57,10.70
2019,10,03,07,58,10.70
2019,10,03,07,59,10.70
2019,10,03,08,00,10.70
2019,10,03,08,01,10.60
2019,10,03,08,02,10.60
2019,10,03,08,03,10.60
2019,10,03,08,04,10.60
2019,10,03,08,05,10.60
2019,10,03,08,06,10.60
2019,10,03,08,07,10.60
2019,10,03,08,08,10.50
2019,10,03,08,09,10.50
2019,10,03,08,10,10.50
2019,10,03,08,11,10.50
2019,10,03,08,12,10.50
2019,10,03,08,13,10.50
2019,10,03,08,14,10.50
2019,10,03,08,15,10.50
2019,10,03,08,16,10.40
2019,10,03,08,17,10.40
2019,10,03,08,18,10.40
2019,10,03,08,19,10.40
2019,10,03,08,20,10.40
2019,10,03,08,21,10.40
2019,10,03,08,22,10.40
2019,10,03,08,23,10.40
2019,10,03,08,24,10.40
2019,10,03,08,25,10.40
2019,10,03,08,26,10.30
2019,10,03,08,27,10.30
2019,10,03,08,28,10.30
2019,10,03,08,29,10.30
2019,10,03,08,30,10.30
2019,10,03,08,31,10.30
2019,10,03,08,32,10.30
2019,10,03,08,33,10.30
2019,10,03,08,34,10.30
2019,10,03,08,35,10.30
2019,10,03,08,36,10.30
2019,10,03,08,37,10.30
2019,10,03,08,38,10.30
2019,10,03,08,39,10.30
2019,10,03,08,40,10.30
2019,10,03,08,41,10.30
2019,10,03,08,42,10.30
2019,10,03,08,43,10.30
2019,10,03,08,44,10.30
2019,10,03,08,45,10.30
2019,10,03,08,46,10.30
2019,10,03,08,47,10.30
2019,10,03,08,48,10.30
2019,10,03,08,49,10.30
2019,10,03,08,50,10.30
2019,10,03,08,51,10.30
2019,10,03,08,52,10.30
2019,10,03,08,53,10.30
2019,10,03,08,54,10.30
2019,10,03,08,55,10.30
2019,10,03,08,56,10.30
2019,10,03,08,57,10.30
2019,10,03,08,58,10.30
2019,10,03,08,59,10.30
2019,10,03,09,00,10.30
2019,10,03,09,01,10.30
2019,10,03,09,02,10.30
2019,10,03,09,03,10.30
2019,10,03,09,04,10.40
2019,10,03,09,05,10.40
2019,10,03,09,06,10.40
2019,10,03,09,07,10.40
2019,10,03,09,08,10.40
2019,10,03,09,09,10.40
2019,10,03,09,10,10.50
2019,10,03,09,11,10.50
2019,10,03,09,12,10.50
2019,10,03,09,13,10.50
2019,10,03,09,14,10.50
2019,10,03,09,15,10.50
2019,10,03,09,16,10.50
2019,10,03,09,17,10.40
2019,10,03,09,18,10.50
2019,10,03,09,19,10.50
2019,10,03,09,20,10.50
2019,10,03,09,21,10.40
2019,10,03,09,22,10.50
2019,10,03,09,23,10.50
2019,10,03,09,24,10.50
2019,10,03,09,25,10.50
2019,10,03,09,26,10.40
2019,10,03,09,27,10.40
2019,10,03,09,28,10.40
2019,10,03,09,29,10.40
2019,10,03,09,30,10.50
2019,10,03,09,31,10.50
2019,10,03,09,32,10.50
2019,10,03,09,33,10.50
2019,10,03,09,34,10.50
2019,10,03,09,35,10.50
2019,10,03,09,36,10.50
2019,10,03,09,37,10.50
2019,10,03,09,38,10.50
2019,10,03,09,39,10.50
2019,10,03,09,40,10.50
2019,10,03,09,41,10.50
2019,10,03,09,42,10.50
2019,10,03,09,43,10.50
2019,10,03,09,44,10.50
2019,10,03,09,45,10.50
2019,10,03,09,46,10.50
2019,10,03,09,47,10.60
2019,10,03,09,48,10.60
2019,10,03,09,49,10.60
2019,10,03,09,50,10.60
2019,10,03,09,51,10.60
2019,10,03,09,52,10.60
2019,10,03,09,53,10.60
2019,10,03,09,54,10.60
2019,10,03,09,55,10.60
2019,10,03,09,56,10.60
2019,10,03,09,57,10.60
2019,10,03,09,58,10.60
2019,10,03,09,59,10.60
2019,10,03,10,00,10.60
2019,10,03,10,01,10.60
2019,10,03,10,02,10.60
2019,10,03,10,03,10.60
2019,10,03,10,04,10.70
2019,10,03,10,05,10.70
2019,10,03,10,06,10.70
2019,10,03,10,07,10.70
2019,10,03,10,08,10.70
2019,10,03,10,09,10.70
2019,10,03,10,10,10.70
2019,10,03,10,11,10.70
2019,10,03,10,12,10.80
2019,10,03,10,13,10.80
2019,10,03,10,14,10.80
2019,10,03,10,15,10.80
2019,10,03,10,16,10.80
2019,10,03,10,17,10.80
2019,10,03,10,18,10.80
2019,10,03,10,19,10.90
2019,10,03,10,20,11.00
2019,10,03,10,21,11.10
2019,10,03,10,22,11.10
2019,10,03,10,23,11.20
2019,10,03,10,24,11.20
2019,10,03,10,25,11.30
2019,10,03,10,26,11.40
2019,10,03,10,27,11.40
2019,10,03,10,28,11.50
2019,10,03,10,29,11.60
2019,10,03,10,30,11.70
2019,10,03,10,31,11.80
2019,10,03,10,32,11.90
2019,10,03,10,33,12.10
2019,10,03,10,34,12.20
2019,10,03,10,35,12.30
2019,10,03,10,36,12.30
2019,10,03,10,37,12.40
2019,10,03,10,38,12.40
2019,10,03,10,39,12.40
2019,10,03,10,40,12.40
2019,10,03,10,41,12.50
2019,10,03,10,42,12.50
2019,10,03,10,43,12.50
2019,10,03,10,44,12.50
2019,10,03,10,45,12.50
2019,10,03,10,46,12.50
2019,10,03,10,47,12.50
2019,10,03,10,48,12.60
2019,10,03,10,49,12.60
2019,10,03,10,50,12.70
2019,10,03,10,51,12.80
2019,10,03,10,52,12.80
2019,10,03,10,53,12.80
2019,10,03,10,54,12.90
2019,10,03,10,55,12.90
2019,10,03,10,56,13.00
2019,10,03,10,57,13.10
2019,10,03,10,58,13.10
2019,10,03,10,59,13.20
2019,10,03,11,00,13.20
2019,10,03,11,01,13.20
2019,10,03,11,02,13.20
2019,10,03,11,03,13.20
2019,10,03,11,04,13.20
2019,10,03,11,05,13.10
2019,10,03,11,06,13.10
2019,10,03,11,07,13.10
2019,10,03,11,08,13.00
2019,10,03,11,09,13.00
2019,10,03,11,10,12.90
2019,10,03,11,11,13.00
2019,10,03,11,12,13.10
2019,10,03,11,13,13.20
2019,10,03,11,14,13.30
2019,10,03,11,15,13.40
2019,10,03,11,16,13.60
2019,10,03,11,17,13.80
2019,10,03,11,18,13.90
2019,10,03,11,19,14.00
2019,10,03,11,20,14.10
2019,10,03,11,21,14.10
2019,10,03,11,22,14.10
2019,10,03,11,23,14.10
2019,10,03,11,24,14.10
2019,10,03,11,25,14.10
2019,10,03,11,26,14.00
2019,10,03,11,27,14.00
2019,10,03,11,28,13.90
2019,10,03,11,29,13.90
2019,10,03,11,30,13.80
2019,10,03,11,31,13.80
2019,10,03,11,32,13.70
2019,10,03,11,33,13.70
2019,10,03,11,34,13.60
2019,10,03,11,35,13.60
2019,10,03,11,36,13.60
2019,10,03,11,37,13.60
2019,10,03,11,38,13.60
2019,10,03,11,39,13.60
2019,10,03,11,40,13.70
2019,10,03,11,41,13.80
2019,10,03,11,42,13.90
2019,10,03,11,43,14.00
2019,10,03,11,44,14.10
2019,10,03,11,45,14.20
2019,10,03,11,46,14.30
2019,10,03,11,47,14.30
2019,10,03,11,48,14.30
2019,10,03,11,49,14.30
2019,10,03,11,50,14.30
2019,10,03,11,51,14.30
2019,10,03,11,52,14.30
2019,10,03,11,53,14.30
2019,10,03,11,54,14.30
2019,10,03,11,55,14.30
2019,10,03,11,56,14.30
2019,10,03,11,57,14.30
2019,10,03,11,58,14.30
2019,10,03,11,59,14.20
2019,10,03,12,00,14.10
2019,10,03,12,01,14.10
2019,10,03,12,02,14.00
2019,10,03,12,03,14.00
2019,10,03,12,04,13.90
2019,10,03,12,05,13.80
2019,10,03,12,06,13.80
2019,10,03,12,07,13.80
2019,10,03,12,08,13.80
2019,10,03,12,09,13.80
2019,10,03,12,10,13.80
2019,10,03,12,11,13.90
2019,10,03,12,12,13.90
2019,10,03,12,13,14.00
2019,10,03,12,14,14.00
2019,10,03,12,15,14.10
2019,10,03,12,16,14.10
2019,10,03,12,17,14.20
2019,10,03,12,18,14.30
2019,10,03,12,19,14.30
2019,10,03,12,20,14.40
2019,10,03,12,21,14.40
2019,10,03,12,22,14.50
2019,10,03,12,23,14.60
2019,10,03,12,24,14.70
2019,10,03,12,25,14.80
2019,10,03,12,26,14.80
2019,10,03,12,27,14.80
2019,10,03,12,28,14.90
2019,10,03,12,29,14.90
2019,10,03,12,30,15.00
2019,10,03,12,31,15.00
2019,10,03,12,32,15.00
2019,10,03,12,33,15.10
2019,10,03,12,34,15.10
2019,10,03,12,35,15.20
2019,10,03,12,36,15.20
2019,10,03,12,37,15.20
2019,10,03,12,38,15.30
2019,10,03,12,39,15.20
2019,10,03,12,40,15.20
2019,10,03,12,41,15.20
2019,10,03,12,42,15.20
2019,10,03,12,43,15.20
2019,10,03,12,44,15.20
2019,10,03,12,45,15.20
2019,10,03,12,46,15.20
2019,10,03,12,47,15.20
2019,10,03,12,48,15.20
2019,10,03,12,49,15.10
2019,10,03,12,50,15.10
2019,10,03,12,51,15.00
2019,10,03,12,52,14.90
2019,10,03,12,53,14.90
2019,10,03,12,54,14.90
2019,10,03,12,55,14.90
2019,10,03,12,56,14.90
2019,10,03,12,57,15.00
2019,10,03,12,58,15.10
2019,10,03,12,59,15.10
2019,10,03,13,00,15.20
2019,10,03,13,01,15.30
2019,10,03,13,02,15.40
2019,10,03,13,03,15.40
2019,10,03,13,04,15.40
2019,10,03,13,05,15.40
2019,10,03,13,06,15.40
2019,10,03,13,07,15.40
2019,10,03,13,08,15.40
2019,10,03,13,09,15.40
2019,10,03,13,10,15.40
2019,10,03,13,11,15.30
2019,10,03,13,12,15.20
2019,10,03,13,13,15.10
2019,10,03,13,14,15.10
2019,10,03,13,15,15.10
2019,10,03,13,16,15.10
2019,10,03,13,17,15.20
2019,10,03,13,18,15.30
2019,10,03,13,19,15.40
2019,10,03,13,20,15.50
2019,10,03,13,21,15.50
2019,10,03,13,22,15.60
2019,10,03,13,23,15.60
2019,10,03,13,24,15.60
2019,10,03,13,25,15.60
2019,10,03,13,26,15.60
2019,10,03,13,27,15.70
2019,10,03,13,28,15.70
2019,10,03,13,29,15.70
2019,10,03,13,30,15.80
2019,10,03,13,31,15.80
2019,10,03,13,32,15.90
2019,10,03,13,33,16.00
2019,10,03,13,34,16.00
2019,10,03,13,35,16.00
2019,10,03,13,36,16.00
2019,10,03,13,37,16.00
2019,10,03,13,38,16.00
2019,10,03,13,39,16.00
2019,10,03,13,40,16.00
2019,10,03,13,41,16.10
2019,10,03,13,42,16.10
2019,10,03,13,43,16.10
2019,10,03,13,44,16.10
2019,10,03,13,45,16.10
2019,10,03,13,46,16.00
2019,10,03,13,47,16.00
2019,10,03,13,48,16.00
2019,10,03,13,49,16.00
2019,10,03,13,50,16.00
2019,10,03,13,51,16.00
2019,10,03,13,52,16.00
2019,10,03,13,53,16.00
2019,10,03,13,54,16.00
2019,10,03,13,55,16.00
2019,10,03,13,56,16.10
2019,10,03,13,57,16.10
2019,10,03,13,58,16.20
2019,10,03,13,59,16.20
2019,10,03,14,00,16.30
2019,10,03,14,01,16.20
2019,10,03,14,02,16.20
2019,10,03,14,03,16.20
2019,10,03,14,04,16.10
2019,10,03,14,05,16.10
2019,10,03,14,06,16.00
2019,10,03,14,07,16.00
2019,10,03,14,08,15.90
2019,10,03,14,09,15.80
2019,10,03,14,10,15.80
2019,10,03,14,11,15.80
2019,10,03,14,12,15.80
2019,10,03,14,13,15.80
2019,10,03,14,14,15.80
2019,10,03,14,15,15.80
2019,10,03,14,16,15.70
2019,10,03,14,17,15.70
2019,10,03,14,18,15.70
2019,10,03,14,19,15.60
2019,10,03,14,20,15.50
2019,10,03,14,21,15.50
2019,10,03,14,22,15.40
2019,10,03,14,23,15.30
2019,10,03,14,24,15.30
2019,10,03,14,25,15.20
2019,10,03,14,26,15.20
2019,10,03,14,27,15.10
2019,10,03,14,28,15.00
2019,10,03,14,29,15.00
2019,10,03,14,30,14.90
2019,10,03,14,31,14.90
2019,10,03,14,32,14.80
2019,10,03,14,33,14.80
2019,10,03,14,34,14.70
2019,10,03,14,35,14.70
2019,10,03,14,36,14.60
2019,10,03,14,37,14.60
2019,10,03,14,38,14.60
2019,10,03,14,39,14.60
2019,10,03,14,40,14.50
2019,10,03,14,41,14.50
2019,10,03,14,42,14.50
2019,10,03,14,43,14.40
2019,10,03,14,44,14.40
2019,10,03,14,45,14.40
2019,10,03,14,46,14.40
2019,10,03,14,47,14.40
2019,10,03,14,48,14.40
2019,10,03,14,49,14.30
2019,10,03,14,50,14.40
2019,10,03,14,51,14.40
2019,10,03,14,52,14.40
2019,10,03,14,53,14.50
2019,10,03,14,54,14.50
2019,10,03,14,55,14.50
2019,10,03,14,56,14.60
2019,10,03,14,57,14.60
2019,10,03,14,58,14.70
2019,10,03,14,59,14.80
2019,10,03,15,00,14.80
2019,10,03,15,01,14.90
2019,10,03,15,02,14.90
2019,10,03,15,03,14.90
2019,10,03,15,04,14.90
2019,10,03,15,05,14.90
2019,10,03,15,06,14.90
2019,10,03,15,07,14.90
2019,10,03,15,08,14.90
2019,10,03,15,09,14.90
2019,10,03,15,10,14.90
2019,10,03,15,11,14.90
2019,10,03,15,12,14.90
2019,10,03,15,13,14.90
2019,10,03,15,14,14.90
2019,10,03,15,15,15.00
2019,10,03,15,16,15.00
2019,10,03,15,17,15.00
2019,10,03,15,18,15.00
2019,10,03,15,19,15.00
2019,10,03,15,20,15.00
2019,10,03,15,21,15.00
2019,10,03,15,22,14.90
2019,10,03,15,23,14.90
2019,10,03,15,24,14.90
2019,10,03,15,25,14.90
2019,10,03,15,26,14.90
2019,10,03,15,27,14.80
2019,10,03,15,28,14.80
2019,10,03,15,29,14.80
2019,10,03,15,30,14.80
2019,10,03,15,31,14.70
2019,10,03,15,32,14.70
2019,10,03,15,33,14.70
2019,10,03,15,34,14.70
2019,10,03,15,35,14.80
2019,10,03,15,36,14.80
2019,10,03,15,37,14.80
2019,10,03,15,38,14.80
2019,10,03,15,39,14.80
2019,10,03,15,40,14.80
2019,10,03,15,41,14.90
2019,10,03,15,42,14.90
2019,10,03,15,43,14.90
2019,10,03,15,44,14.90
2019,10,03,15,45,14.90
2019,10,03,15,46,14.90
2019,10,03,15,47,14.90
2019,10,03,15,48,14.90
2019,10,03,15,49,14.80
2019,10,03,15,50,14.80
2019,10,03,15,51,14.80
2019,10,03,15,52,14.80
2019,10,03,15,53,14.80
2019,10,03,15,54,14.80
2019,10,03,15,55,14.80
2019,10,03,15,56,14.70
2019,10,03,15,57,14.70
2019,10,03,15,58,14.70
2019,10,03,15,59,14.60
2019,10,03,16,00,14.60
2019,10,03,16,01,14.60
2019,10,03,16,02,14.60
2019,10,03,16,03,14.60
2019,10,03,16,04,14.60
2019,10,03,16,05,14.50
2019,10,03,16,06,14.50
2019,10,03,16,07,14.50
2019,10,03,16,08,14.50
2019,10,03,16,09,14.50
2019,10,03,16,10,14.40
2019,10,03,16,11,14.40
2019,10,03,16,12,14.40
2019,10,03,16,13,14.40
2019,10,03,16,14,14.40
2019,10,03,16,15,14.40
2019,10,03,16,16,14.40
2019,10,03,16,17,14.40
2019,10,03,16,18,14.40
2019,10,03,16,19,14.40
2019,10,03,16,20,14.40
2019,10,03,16,21,14.30
2019,10,03,16,22,14.30
2019,10,03,16,23,14.30
2019,10,03,16,24,14.30
2019,10,03,16,25,14.20
2019,10,03,16,26,14.20
2019,10,03,16,27,14.20
2019,10,03,16,28,14.10
2019,10,03,16,29,14.10
2019,10,03,16,30,14.10
2019,10,03,16,31,14.00
2019,10,03,16,32,14.00
2019,10,03,16,33,13.90
2019,10,03,16,34,13.90
2019,10,03,16,35,13.90
2019,10,03,16,36,13.80
2019,10,03,16,37,13.80
2019,10,03,16,38,13.80
2019,10,03,16,39,13.70
2019,10,03,16,40,13.70
2019,10,03,16,41,13.70
2019,10,03,16,42,13.70
2019,10,03,16,43,13.70
2019,10,03,16,44,13.70
2019,10,03,16,45,13.70
2019,10,03,16,46,13.70
2019,10,03,16,47,13.70
2019,10,03,16,48,13.70
2019,10,03,16,49,13.70
2019,10,03,16,50,13.70
2019,10,03,16,51,13.70
2019,10,03,16,52,13.70
2019,10,03,16,53,13.60
2019,10,03,16,54,13.60
2019,10,03,16,55,13.60
2019,10,03,16,56,13.60
2019,10,03,16,57,13.60
2019,10,03,16,58,13.60
2019,10,03,16,59,13.60
2019,10,03,17,00,13.60
2019,10,03,17,01,13.60
2019,10,03,17,02,13.60
2019,10,03,17,03,13.60
2019,10,03,17,04,13.60
2019,10,03,17,05,13.60
2019,10,03,17,06,13.60
2019,10,03,17,07,13.60
2019,10,03,17,08,13.60
2019,10,03,17,09,13.60
2019,10,03,17,10,13.60
2019,10,03,17,11,13.70
2019,10,03,17,12,13.70
2019,10,03,17,13,13.70
2019,10,03,17,14,13.70
2019,10,03,17,15,13.70
2019,10,03,17,16,13.70
2019,10,03,17,17,13.70
2019,10,03,17,18,13.70
2019,10,03,17,19,13.70
2019,10,03,17,20,13.60
2019,10,03,17,21,13.60
2019,10,03,17,22,13.60
2019,10,03,17,23,13.50
2019,10,03,17,24,13.50
2019,10,03,17,25,13.40
2019,10,03,17,26,13.40
2019,10,03,17,27,13.40